Flag for Germany Weather past 2 weeks in Mannheim, Baden-Württemberg, Germany

Now
72 °F

Scattered clouds.


Feels Like: 75 °F
Forecast: 57 / 73 °F
Wind: 6 mph from North

Location: Baden Wurttemberg - Neuostheim

Current Time: Aug 29, 2014 at 12:48:59 PM

Latest Report: Aug 29, 2014 at 12:20 PM


Visibility: N/A

Pressure: 30.04 "Hg

Humidity: 65%

Dew point: 59 °F

Location of MannheimLocation

Historic Weather in Mannheim — Graph

°F

Mannheim temperature yesterday

Maximum temperature yesterday: 75 °F (at 2:50 PM)
Minimum temperature yesterday: 54 °F (at 5:20 AM)
Average temperature yesterday: 67 °F

Past Weeks' High & Low Weather Summary

 TemperatureHumidityPressure
High75 °F (Aug 28, 2:50 PM)100% (Aug 19, 5:50 AM)30.15 "Hg (Aug 19, 5:50 AM)
Low48 °F (Aug 20, 5:50 AM)33% (Aug 21, 4:20 PM)29.65 "Hg (Aug 26, 5:50 AM)
Average63 °F68%29.97 "Hg
* Reported Aug 14 11:20 AM — Aug 29 11:50 AM, Mannheim, Weather by CustomWeather, © 2014

Note: Actual official high and low records may vary slightly from our data, if they occured in-between our weather recording intervals... More about our weather records

Advertising

Mannheim weather history for previous 24 hours

 ConditionsComfort  
Time TempWeatherWind HumidityBarometerVisibility
11:50 AM
Aug 29
68 °FScattered clouds.5 mph73%30.04 "HgN/A
11:20 AM70 °FBroken clouds.3 mph69%30.04 "HgN/A
10:50 AM66 °FBroken clouds.2 mph78%30.04 "HgN/A
10:20 AM66 °FBroken clouds.3 mph78%30.04 "HgN/A
9:50 AM66 °FPartly sunny.3 mph78%30.04 "HgN/A
9:20 AM64 °FScattered clouds.3 mph78%30.04 "HgN/A
8:50 AM64 °FScattered clouds.3 mph78%30.04 "HgN/A
8:20 AM64 °FPartly sunny.3 mph78%30.01 "HgN/A
7:50 AM64 °FPartly sunny.3 mph78%30.01 "HgN/A
7:20 AM63 °FPassing clouds.7 mph83%30.01 "HgN/A
6:50 AM63 °FPassing clouds.7 mph83%30.01 "HgN/A
6:20 AM64 °FPassing clouds.7 mph78%30.01 "HgN/A
5:50 AM64 °FPassing clouds.6 mph78%30.01 "HgN/A
5:20 AM64 °FPassing clouds.5 mph83%30.01 "HgN/A
9:20 PM
Aug 28
70 °FClear.3 mph69%30.01 "Hg10 mi
8:50 PM72 °FSunny.3 mph61%30.01 "Hg10 mi
7:50 PM73 °FPassing clouds.5 mph57%30.01 "HgN/A
7:20 PM73 °FPassing clouds.7 mph57%30.01 "HgN/A
6:50 PM73 °FPassing clouds.6 mph57%30.01 "HgN/A
6:20 PM73 °FPassing clouds.6 mph57%30.01 "HgN/A
5:50 PM75 °FPassing clouds.7 mph50%30.01 "HgN/A
5:20 PM75 °FPassing clouds.8 mph50%30.01 "HgN/A
4:50 PM75 °FPassing clouds.7 mph54%30.01 "HgN/A
4:20 PM75 °FScattered clouds.8 mph50%30.01 "HgN/A
3:50 PM75 °FScattered clouds.9 mph50%30.01 "HgN/A
3:20 PM73 °FPassing clouds.8 mph53%30.01 "HgN/A
2:50 PM75 °FScattered clouds.7 mph54%30.04 "HgN/A
2:20 PM73 °FPassing clouds.7 mph53%30.04 "HgN/A
1:50 PM72 °FPassing clouds.7 mph57%30.04 "HgN/A
1:20 PM72 °FPassing clouds.8 mph61%30.04 "HgN/A
12:50 PM70 °FPassing clouds.8 mph69%30.07 "HgN/A
12:20 PM70 °FPassing clouds.6 mph64%30.07 "HgN/A
Weather by CustomWeather, © 2014

See weather overviewHow to use our weather pages